Regional Weather Roundup
Issued by NWS

Home | Current Version | Previous Version | Graphics & Text | Print | Product List | Glossary Off
Versions: 1 2 3 4 5 6 7 8 9 10 11 12 13 14 15 16 17 18 19 20 21 22 23 24 25 26 27 28 29 30

000
ASUS43 KDMX 301207
RWRIA

WEATHER ROUNDUP FOR IOWA
NATIONAL WEATHER SERVICE DES MOINES IA
700 AM CDT THU OCT 30 2014

NOTE: "FAIR" INDICATES FEW OR NO CLOUDS BELOW 12,000 FEET WITH NO
SIGNIFICANT WEATHER AND/OR OBSTRUCTIONS TO VISIBILITY.

* - THESE STATIONS ARE NOT NWS STATIONS...THUS NOT UNDER NWS
QUALITY CONTROL.  THEY ALSO DO NOT REPORT WEATHER SUCH
AS PRECIPITATION OR FOG.

IAZ001>003-012>014-020>022-031>034-043>046-301300-
   NORTHWEST IOWA

CITY           SKY/WX    TMP DP  RH WIND       PRES   REMARKS
CARROLL *      PTCLDY    39  36  87 S7        30.00R WCI  34
CHEROKEE *     MOCLDY    38  35  87 CALM      30.00S
DENISON *      CLEAR     37  34  87 CALM      29.98S
LE MARS *      CLEAR     37  32  81 S3        30.00S
ORANGE CITY *  CLEAR     41  32  70 SW3       29.99S
SHELDON *      CLOUDY    41  34  75 S6        29.97F
SIOUX CITY     CLEAR     34  31  88 CALM      30.01R
6HR MIN TEMP:  33; 6HR MAX TEMP:  48; 6HR PCP: TRACE;

SPENCER        CLOUDY    41  35  79 S3        30.00R
6HR MIN TEMP:  41; 6HR MAX TEMP:  44;

STORM LAKE *   MOCLDY    37  34  87 SW8       30.00S WCI  31
$$

IAZ055>058-069>071-079>083-090>094-301300-
   SOUTHWEST IOWA

CITY           SKY/WX    TMP DP  RH WIND       PRES   REMARKS
ATLANTIC *     PTCLDY    37  32  81 CALM      30.00R
AUDUBON *      CLEAR     37  32  81 CALM      30.01R
CLARINDA *     CLEAR     37  36  93 CALM      30.01R
COUNCIL BLFS * CLEAR     41  36  81 W5        29.99S
CRESTON *      CLOUDY    41  36  81 SE3       30.00R
HARLAN  *      CLEAR     36  34  93 CALM      30.04R
LAMONI         CLOUDY    44  36  73 S9        29.98F
6HR MIN TEMP:  42; 6HR MAX TEMP:  45; 6HR PCP: TRACE;

RED OAK *      PTCLDY    37  34  87 CALM      30.01R
SHENANDOAH *   CLEAR     37  36  93 CALM      30.02R
$$

IAZ047>049-059>061-072>074-084-301300-
   CENTRAL IOWA

CITY           SKY/WX    TMP DP  RH WIND       PRES   REMARKS
AMES           CLOUDY    40  36  86 SE13      30.01F WCI  32
6HR MIN TEMP:  34; 6HR MAX TEMP:  40;

ANKENY *       CLOUDY    41  39  93 S13       30.03F
CHARITON *     CLOUDY    43  37  81 E8        30.03S
DES MOINES     CLOUDY    44  36  73 E7        30.06S
6HR MIN TEMP:  41; 6HR MAX TEMP:  45;

GRINNELL*      CLOUDY    39  36  87 SE6       30.06F WCI  35
KNOXVILLE *    CLOUDY    41  36  81 E5        30.04S
MARSHALLTOWN   LGT RAIN  39  36  89 S10       30.04F WCI  32
6HR MIN TEMP:  31; 6HR MAX TEMP:  39; 6HR PCP: TRACE;

PELLA *        CLOUDY    41  36  83 E3        30.07S
PERRY *          N/A     41  37  87 S8        30.00R
$$

IAZ004>006-015-016-023>025-035-036-301300-
   NORTH CENTRAL IOWA

CITY           SKY/WX    TMP DP  RH WIND       PRES   REMARKS
ALGONA *       CLOUDY    43  37  81 CALM      30.02R
CLARION *      PTCLDY    41  37  87 SE7       30.00S
ESTHERVILLE    CLOUDY    40  35  83 E3        30.00R
6HR MIN TEMP:  40; 6HR MAX TEMP:  43;

FORT DODGE *   MOCLDY    39  34  81 CALM      30.01R
MASON CITY     CLOUDY    37  35  92 SE3       30.04S
6HR MIN TEMP:  32; 6HR MAX TEMP:  37;

FOREST CITY *  CLOUDY    39  36  87 CALM      30.02R
IOWA FALLS *     N/A     37  34  87 E3        30.03F
$$

IAZ007>011-017>019-026>030-037>042-050>054-066-301300-
   NORTHEAST IOWA

CITY           SKY/WX    TMP DP  RH WIND       PRES   REMARKS
CEDAR RAPIDS   CLOUDY    36  34  92 S6        30.08S WCI  31
6HR MIN TEMP:  31; 6HR MAX TEMP:  36;

CHARLES CITY * CLOUDY    37  34  87 SE7       30.05S WCI  32
CLINTON *      CLOUDY    34  30  86 CALM      30.14F
DECORAH *      MOCLDY    36  32  87 S3        30.06S
DUBUQUE        CLOUDY    32  31  96 S6        30.09F WCI  26
6HR MIN TEMP:  30; 6HR MAX TEMP:  35;

MONTICELLO *   CLOUDY    34  34 100 CALM      30.09F
OELWEIN *      CLOUDY    37  34  87 SE8       30.07F WCI  31
WATERLOO       CLOUDY    39  34  82 S7        30.05F WCI  34
6HR MIN TEMP:  32; 6HR MAX TEMP:  39;

$$

IAZ064-065-067-068-078-301300-
   EAST CENTRAL IOWA

CITY           SKY/WX    TMP DP  RH WIND       PRES   REMARKS
DAVENPORT      MOCLDY    35  32  88 SE5       30.12S WCI  31
6HR MIN TEMP:  30; 6HR MAX TEMP:  36;

IOWA CITY      MOCLDY    35  33  92 CALM      30.11F
6HR MIN TEMP:  32; 6HR MAX TEMP:  35;

MT. PLEASANT * PTCLDY    37  35  91 SE6       30.09F WCI  33
MUSCATINE *    MOCLDY    32  30  93 CALM      30.12S
QUAD CITIES    MOCLDY    33  30  88 E3        30.12F
6HR MIN TEMP:  29; 6HR MAX TEMP:  34;

$$

IAZ062-063-075>077-085>089-095>099-301300-
   SOUTHEAST IOWA

CITY           SKY/WX    TMP DP  RH WIND       PRES   REMARKS
BURLINGTON     PTCLDY    37  34  89 SE3       30.10F
6HR MIN TEMP:  34; 6HR MAX TEMP:  39;

FAIRFIELD *    CLOUDY    41  36  81 S7        30.09R
FORT MADISON * PTCLDY    43  37  81 S5        30.10F
KEOKUK *       MIX PCPN  41  36  81 SE7       30.09S
OSKALOOSA *    CLOUDY    39  35  87 SE7       30.07S WCI  34
CENTERVILLE *  PTCLDY    43  36  75 SE7       30.06R
OTTUMWA        CLOUDY    42  35  76 SE9       30.06S
6HR MIN TEMP:  33; 6HR MAX TEMP:  42;

WASHINGTON *   CLOUDY    39  37  93 SE7       30.09F WCI  34
$$

ABBREVIATIONS USED IN REMARKS
   TC - TEMPERATURES IN CELSIUS
  WCI - WIND CHILL INDEX
   HX - HEAT INDEX
  VSB - VISIBILITY
$$




USA.gov is the U.S. government's official web portal to all federal, state and local government web resources and services.